Regional Weather Roundup
Issued by NWS Cleveland, OH

Home | Current Version | Previous Version | Graphics & Text | Print | Product List | Glossary On
Versions: 1 2 3 4 5 6 7 8 9 10 11 12 13 14 15 16 17 18 19 20 21 22 23 24 25 26 27 28 29 30 31 32 33 34 35 36 37 38 39 40 41 42 43 44 45 46 47 48 49 50
000
ASUS41 KCLE 031000
RWRCLE
OHIO REGIONAL WEATHER ROUNDUP
NATIONAL WEATHER SERVICE WILMINGTON, OH
600 AM EDT TUE MAY 03 2016

NOTE: "FAIR" INDICATES FEW OR NO CLOUDS BELOW 12,000 FEET WITH NO
SIGNIFICANT WEATHER AND/OR OBSTRUCTIONS TO VISIBILITY.

OHZ001>008-015>018-024>027-034-035-043-044-031100-
   NORTHWEST OHIO

CITY           SKY/WX    TMP DP  RH WIND       PRES   REMARKS
DEFIANCE       CLOUDY    47  46  97 CALM      29.94S FOG
FINDLAY        CLOUDY    48  42  80 NE6       29.91F
TOLEDO EXPRESS CLOUDY    45  44  97 CALM      29.93F FOG
TOLEDO EXEC    CLOUDY    48  45  89 CALM      29.94F FOG
LIMA           CLOUDY    47  45  93 CALM      29.93R
$$

OHZ009>014-019>023-028>033-038-089-031100-
   NORTHEAST OHIO

CITY           SKY/WX    TMP DP  RH WIND       PRES   REMARKS
CLE-HOPKINS    FAIR      45  42  89 NW3       29.94S
CLE-LAKEFRONT  FAIR      46  42  86 NE7       29.92S
CUY CO. ARPT   NOT AVBL
LORAIN-ELYRIA  CLOUDY    45  42  89 CALM      29.92F FOG
ASHTABULA      CLOUDY    41  41 100 NW3       29.93R FOG
AKRON-CANTON   CLOUDY    43  39  86 N3        29.91S
WOOSTER        NOT AVBL
MANSFIELD      CLOUDY    43  41  93 N5        29.91F
YOUNGSTOWN     FOG       41  40  96 N8        29.90S VSB 1/2
$$

OHZ042-051>053-060>062-070>072-077>081-031100-
  SOUTHWEST OHIO

CITY           SKY/WX    TMP DP  RH WIND       PRES   REMARKS
CINC-COVINGTON CLOUDY    54  51  90 N5        29.89F
CINC-LUNKEN    CLOUDY    54  51  90 NE5       29.91S
HAMILTON       CLOUDY    54  49  83 CALM      29.92S
DAYTON         NOT AVBL
WRIGHT-PAT AFB NOT AVBL
DAYTON GENERAL CLOUDY    50  45  83 NE6       29.90S
WILMINGTON     LGT RAIN  49  47  93 NE3       29.89F
$$

OHZ036-037-039>041-045>050-054>059-063>069-073>076-082>088-031100-
  CENTRAL AND SOUTHEAST OHIO

CITY           SKY/WX    TMP DP  RH WIND       PRES   REMARKS
COLUMBUS       CLOUDY    46  44  93 N5        29.90S
OSU AIRPORT    CLOUDY    47  44  90 N6        29.90S
BOLTON FIELD   NOT AVBL
RICKENBACK AFB NOT AVBL
NEWARK         MOCLDY    49  43  80 N5        29.90S
MARION         MOCLDY    44  42  93 NE5       29.92F
LANCASTER      CLOUDY    50  46  86 N6        29.90F
ZANESVILLE     CLOUDY    51  45  79 N5        29.89F
NEW PHILLY     CLOUDY    46  41  82 NE3       29.91F
$$



USA.gov is the U.S. government's official web portal to all federal, state and local government web resources and services.